VOCBVOBG

Guest
Details From VOCB - COIMBATORE
To VOBG - Bangalore
Flight Number -
Tags generated
Created
Modified
Stats Distance 122 nm / 226 km
Max Altitude 11,000 ft / 3,353 m
Waypoints 4
Social Downloads 1
Likes 0
Share VATSIM

Download

Looking for another format? Having issues loading an existing format? Contact us
Advertisement - Login to hide

Notes

Basic altitude profile: - Ascent Rate: 2500ft/min - Ascent Speed: 250kts - Cruise Altitude: 35000ft - Cruise Speed: 420kts - Descent Rate: 1500ft/min - Descent Speed: 250kts Options: - Use NATs: yes - Use PACOTS: yes - Use low airways: yes - Use high airways: yes

Route

VOCB CCB W22 BBG VOBG

ID Type Via Altitude Latitude Longitude Leg Dist Tot Dist Heading (true) Name
O VOCB APT - 0 ft / 0 m 11.03003˚ 77.04338˚ - 0 nm - COIMBATORE
CCB VOR - 100 ft / 30 m 11.03378˚ 77.04806˚ 0 nm 0 nm 51° / 51° COIMBATORE VOR-DME
BBG VOR W22 (AWY-LO) 11,000 ft / 3,353 m 12.94975˚ 77.68100˚ 120 nm 121 nm 18° / 18° BANGALORE VOR-DME
O VOBG APT - 0 ft / 0 m 12.95016˚ 77.67065˚ 0 nm 121 nm 272° / 272° Bangalore

Altitude Profile

Advertisement - Login to hide

VOCB

Details ICAO VOCB (CJB)
Name COIMBATORE
Region India
Timezone Asia/Kolkata (UTC+5.5)
Stats Elevation 1,324 ft / 404 m (AMSL)
Location 11.030031° 77.043381°
Runways 1
Magnetic Variation 1.480° W

METAR

VOCB 221430Z 20007KT 6000 FEW015 29/24 Q1008 NOSIG

Decode

TAF

TAF VOCB 221100Z 2212/2318 20010KT 6000 FEW015 BKN080 TEMPO 2215/2221 4000 -TSRA/RA SCT015 FEW020TCU/CB OVC080 BECMG 2221/2222 00000KT 3000 BR BECMG 2305/2306 20010KT 6000

Decode

Departure Runways

ID Width Length Bearing (true) Bearing (mag) Surface Threshold Offset Overrun Length
05 150 ft / 46 m 8,499 ft / 2,590 m 45.67° 47.15° Asphalt 0 ft / 0 m 185 ft / 56 m
23 150 ft / 46 m 8,499 ft / 2,590 m 225.68° 227.16° Asphalt 0 ft / 0 m 185 ft / 56 m

VOBG

Details ICAO VOBG
Name Bangalore
Region India
Timezone Asia/Kolkata (UTC+5.5)
Stats Elevation 2,912 ft / 888 m (AMSL)
Location 12.950157° 77.670647°
Runways 1
Magnetic Variation 1.187° W

METAR

VOBG 221400Z 16004KT 6000 SCT015 28/21 Q1011

Decode

TAF

Not found

Destination Runways

ID Width Length Bearing (true) Bearing (mag) Surface Threshold Offset Overrun Length
09 200 ft / 61 m 10,786 ft / 3,288 m 84.80° 85.99° Asphalt 0 ft / 0 m 950 ft / 290 m
27 200 ft / 61 m 10,786 ft / 3,288 m 264.81° 266.00° Asphalt 0 ft / 0 m 980 ft / 299 m

Approach Navaids

Runway Type Ident Frequency Range Bearing (true) Bearing (mag) Slope Elevation
27 Localiser IBLR 110.50 MHz 18 nm / 33 km 262.49° 263.67° - 2,912 ft / 888 m (AMSL)
27 Glidescope IBLR 110.50 MHz 10 nm / 19 km 264.81° 265.99° 3.00° 2,943 ft / 897 m (AMSL)
27 DME IBLR 110.50 MHz 18 nm / 33 km - - - 2,912 ft / 888 m (AMSL)

Popular Alternatives